Weather History for Spirit of St Louis, MO

Change the Weather History Date:

Tuesday, April 16, 2013

  Actual Average Record
Temperature  
Mean Temperature 48 °F -  
Max Temperature 50 °F 66 °F 90 °F (2002)
Min Temperature 44 °F 43 °F 35 °F (2007)
Degree Days  
Heating Degree Days 16    
Moisture  
Dew Point 44 °F    
Average Humidity 88    
Maximum Humidity 93    
Minimum Humidity 82    
Precipitation  
Precipitation 0.36 in - - ()
Sea Level Pressure  
Sea Level Pressure 30.08 in    
Wind  
Wind Speed 8 mph (NNE)    
Max Wind Speed 14 mph    
Max Gust Speed 18 mph    
Visibility 7 miles    
Events Rain , Thunderstorm    
Averages and records for this station are not official NWS values.
T = Trace of Precipitation, MM = Missing Value Source: NWS Daily Summary

Daily Weather History Graph

Daily Weather History Graph

Search for Another Location

Airport:

Trip Planner

Search our weather history database for the weather conditions in past years. The results will help you decide how hot, cold, wet, or windy it might be!

Date:

Astronomy

Apr. 16, 2013 Rise Set
Actual Time 6:24 AM CDT 7:40 PM CDT
Civil Twilight 5:57 AM CDT 8:08 PM CDT
Nautical Twilight 5:24 AM CDT 8:41 PM CDT
Astronomical Twilight 4:49 AM CDT 9:15 PM CDT
Moon 10:45 AM CDT (4/16) 12:36 AM CDT (4/16)
Length of Visible Light 14h 11m
Length of Day
13h 16m
Waxing Crescent, 33% of the Moon is Illuminated
Apr 16
Waxing Crescent
Apr 18
First Quarter
Apr 25
Full
May 2
Last Quarter
May 9
New

Hourly Weather History & Observations

Time (CDT) Temp. Windchill Dew Point Humidity Pressure Visibility Wind Dir Wind Speed Gust Speed Precip Events Conditions
12:18 AM 53.6 °F - 48.2 °F 82% 29.94 in 10.0 mi NW 10.4 mph - N/A   Overcast
12:54 AM 50.0 °F - 46.0 °F 86% 29.95 in 10.0 mi North 12.7 mph 18.4 mph N/A   Overcast
1:50 AM 48.2 °F - 44.6 °F 87% 29.98 in 10.0 mi North 8.1 mph 18.4 mph 0.00 in Rain Light Rain
1:54 AM 48.9 °F - 44.1 °F 83% 29.98 in 10.0 mi North 5.8 mph - 0.00 in   Overcast
2:54 AM 48.0 °F - 44.1 °F 86% 29.97 in 10.0 mi NE 8.1 mph - 0.00 in   Overcast
3:24 AM 48.2 °F - 44.6 °F 87% 30.00 in 4.0 mi Variable 3.5 mph - 0.00 in Rain , Thunderstorm Light Rain
3:35 AM 46.4 °F 45.2 °F 44.6 °F 93% 30.01 in 2.0 mi NE 3.5 mph - 0.10 in Rain , Thunderstorm Heavy Thunderstorms and Rain
3:54 AM 48.0 °F - 45.0 °F 89% 29.99 in 3.0 mi NNE 8.1 mph - 0.22 in Rain , Thunderstorm Rain
4:02 AM 48.2 °F - 44.6 °F 87% 30.01 in 6.0 mi Calm Calm - 0.01 in Rain , Thunderstorm Light Rain
4:12 AM 48.2 °F - 44.6 °F 87% 29.99 in 8.0 mi NNE 6.9 mph - 0.02 in Rain , Thunderstorm Light Rain
4:25 AM 48.2 °F - 44.6 °F 87% 30.01 in 8.0 mi SSE 6.9 mph - 0.03 in Rain , Thunderstorm Rain
4:28 AM 48.2 °F - 44.6 °F 87% 30.03 in 7.0 mi Calm Calm - 0.04 in Rain , Thunderstorm Rain
4:54 AM 48.0 °F - 45.0 °F 89% 30.06 in 10.0 mi North 3.5 mph - 0.06 in Rain Rain
5:02 AM 48.2 °F - 44.6 °F 87% 30.00 in 6.0 mi NE 13.8 mph - 0.01 in Rain , Thunderstorm Rain
5:26 AM 48.2 °F - 44.6 °F 87% 30.07 in 10.0 mi NW 10.4 mph - 0.03 in Rain Light Rain
5:54 AM 46.9 °F - 44.1 °F 90% 30.04 in 10.0 mi North 10.4 mph 17.3 mph 0.03 in   Overcast
6:47 AM 46.4 °F 42.4 °F 42.8 °F 87% 30.06 in 10.0 mi NE 8.1 mph - 0.00 in Rain Light Rain
6:54 AM 46.4 °F 41.9 °F 42.8 °F 87% 30.07 in 10.0 mi North 9.2 mph - N/A Rain Light Rain
7:01 AM 46.4 °F 42.4 °F 42.8 °F 87% 30.07 in 10.0 mi NNE 8.1 mph - 0.00 in Rain Light Rain
7:54 AM 46.0 °F 41.4 °F 43.0 °F 89% 30.09 in 10.0 mi NE 9.2 mph - 0.00 in   Overcast
8:54 AM 46.0 °F 42.5 °F 43.0 °F 89% 30.11 in 5.0 mi NNE 6.9 mph - 0.00 in Rain Light Rain
9:08 AM 46.4 °F 41.9 °F 42.8 °F 87% 30.10 in 4.0 mi NE 9.2 mph - 0.00 in Rain Light Rain
9:54 AM 45.0 °F 40.6 °F 42.1 °F 90% 30.12 in 6.0 mi NNE 8.1 mph - 0.00 in   Overcast
10:29 AM 44.6 °F 40.2 °F 42.8 °F 93% 30.13 in 3.0 mi North 8.1 mph - N/A Thunderstorm Overcast
10:54 AM 45.0 °F 39.7 °F 42.1 °F 90% 30.14 in 2.5 mi NNE 10.4 mph - N/A Thunderstorm Overcast
11:54 AM 45.0 °F 40.6 °F 42.1 °F 90% 30.12 in 3.0 mi ENE 8.1 mph - 0.04 in Rain , Thunderstorm Light Thunderstorms and Rain
12:43 PM 46.4 °F 42.9 °F 42.8 °F 87% 30.12 in 9.0 mi NNE 6.9 mph - 0.01 in   Overcast
12:54 PM 46.0 °F 42.5 °F 43.0 °F 89% 30.13 in 5.0 mi NE 6.9 mph - 0.01 in   Overcast
1:01 PM 46.4 °F - 42.8 °F 87% 30.12 in 5.0 mi Calm Calm - N/A   Overcast
1:54 PM 46.9 °F - 44.1 °F 90% 30.12 in 3.0 mi NE 5.8 mph - N/A   Overcast
2:41 PM 46.4 °F 42.9 °F 44.6 °F 93% 30.13 in 2.5 mi NNE 6.9 mph - N/A   Overcast
2:54 PM 46.9 °F - 44.1 °F 90% 30.12 in 2.0 mi NE 9.2 mph - N/A   Overcast
3:54 PM 46.9 °F - 44.1 °F 90% 30.13 in 6.0 mi NE 10.4 mph - N/A   Overcast
4:54 PM 46.9 °F - 44.1 °F 90% 30.12 in 5.0 mi NE 6.9 mph - N/A   Overcast
5:54 PM 48.0 °F - 45.0 °F 89% 30.13 in 7.0 mi NE 10.4 mph - N/A   Overcast
6:54 PM 48.0 °F - 45.0 °F 89% 30.13 in 7.0 mi NNE 6.9 mph - N/A   Overcast
7:36 PM 48.2 °F - 44.6 °F 87% 30.14 in 10.0 mi NE 6.9 mph - N/A   Overcast
7:54 PM 48.0 °F - 44.1 °F 86% 30.15 in 10.0 mi NE 6.9 mph - N/A   Overcast
8:54 PM 48.9 °F - 44.1 °F 83% 30.15 in 10.0 mi NE 6.9 mph - N/A   Overcast
9:54 PM 48.9 °F - 45.0 °F 86% 30.16 in 10.0 mi NE 4.6 mph - N/A   Overcast
10:54 PM 50.0 °F - 45.0 °F 83% 30.14 in 10.0 mi NE 4.6 mph - N/A   Overcast
11:54 PM 50.0 °F - 45.0 °F 83% 30.13 in 10.0 mi ENE 4.6 mph - N/A   Overcast